Location: Hamilton
(37.7830°S, 175.2830°E)
Time: 23:25:46
(UTC+13:00)

Cosmos 2219 Rocket - Pass Details

Date: 24 January 2019
Orbit: 829 x 845 km, 71.0° (Epoch: 22 February)

Event Time Altitude Azimuth Distance (km) Brightness Sun altitude
Exits shadow 23:36:35 72° 95° (E) 894 2.1 -27.0°
Drops below altitude 10° 23:42:02 10° 154° (SSE) 2,494 5.0 -27.5°
Sets 23:44:30 0° 155° (SSE) 3,437 5.9 -27.8°
